This is the latest recevied weather packets stored in our database for station/object OK3MS-5. If no packets are shown the sender has not sent any weather packets the latest 10 day(s).
| Time | Temp. | Humidity | Pressure | Rain* | Wind** | Luminosity | Snow |
|---|---|---|---|---|---|---|---|
| 1788031504 | 15° C | 89% | 1015.8 hPa | 0 mm | - | 0 W/m² | - |
| 1788031204 | 15° C | 89% | 1015.8 hPa | 0 mm | - | 0 W/m² | - |
| 1788030902 | 15.56° C | 88% | 1015.8 hPa | 0 mm | - | 0 W/m² | - |
| 1788030602 | 15.56° C | 88% | 1015.6 hPa | 0 mm | - | 0 W/m² | - |
| 1788030303 | 15.56° C | 88% | 1015.6 hPa | 0 mm | - | 0 W/m² | - |
| 1788030004 | 15.56° C | 88% | 1015.5 hPa | 0 mm | - | 0 W/m² | - |
| 1788029703 | 16.11° C | 88% | 1015.5 hPa | 0 mm | - | 0 W/m² | - |
| 1788029406 | 16.11° C | 88% | 1015.3 hPa | 0 mm | - | 0 W/m² | - |
| 1788029103 | 16.11° C | 86% | 1015.3 hPa | 0 mm | - | 0 W/m² | - |
| 1788028805 | 16.11° C | 85% | 1015.3 hPa | 0 mm | - | 0 W/m² | - |
| 1788028503 | 16.11° C | 84% | 1015.2 hPa | 0 mm | - | 0 W/m² | - |
| 1788028210 | 16.67° C | 83% | 1015.2 hPa | 0 mm | - | 0 W/m² | - |
| 1788027904 | 16.67° C | 82% | 1015.1 hPa | 0 mm | - | 0 W/m² | - |
| 1788027603 | 17.22° C | 81% | 1015 hPa | 0 mm | - | 0 W/m² | - |
| 1788027304 | 17.22° C | 81% | 1014.9 hPa | 0 mm | - | 0 W/m² | - |
| 1788027003 | 17.78° C | 80% | 1014.8 hPa | 0 mm | - | 0 W/m² | - |
| 1788026706 | 17.78° C | 77% | 1014.8 hPa | 0 mm | - | 0 W/m² | - |
| 1788026410 | 18.33° C | 75% | 1014.6 hPa | 0 mm | - | 1 W/m² | - |
| 1788026103 | 18.33° C | 75% | 1014.6 hPa | 0 mm | - | 2 W/m² | - |
| 1788025810 | 18.33° C | 77% | 1014.5 hPa | 0 mm | - | 2 W/m² | - |
| 1788025505 | 18.89° C | 77% | 1014.5 hPa | 0 mm | - | 3 W/m² | - |
| 1788025205 | 19.44° C | 73% | 1014.3 hPa | 0 mm | - | 4 W/m² | - |
| 1788024904 | 19.44° C | 70% | 1014.2 hPa | 0 mm | - | 6 W/m² | - |
| 1788024608 | 20° C | 65% | 1014.1 hPa | 0 mm | - | 7 W/m² | - |
| 1788024304 | 20.56° C | 59% | 1014.1 hPa | 0 mm | - | 10 W/m² | - |
* Rain latest hour (hover to see other rain measurements)
** Current wind speed in m/s (hover to see current wind gust speed)